Regional Weather Roundup
Issued by NWS

Home | Current Version | Previous Version | Text Only | Print | Product List | Glossary On
Versions: 1 2 3 4 5 6 7 8 9 10 11 12 13 14 15 16 17 18 19 20 21 22 23 24 25 26 27 28 29 30 31 32 33 34 35 36 37 38 39 40 41 42 43 44 45 46 47 48 49 50
000
ASUS43 KLMK 260610
RWRKY
KENTUCKY REGIONAL WEATHER ROUNDUP
NATIONAL WEATHER SERVICE LOUISVILLE KY
200 AM EDT SUN JUN 26 2016

NOTE "FAIR" INDICATES FEW OR NO CLOUDS BELOW 12,000 FEET
WITH NO SIGNIFICANT WEATHER AND/OR OBSTRUCTIONS TO VISIBILITY.

KYZ001>023-026-027-061>063-070>075-260700-
WESTERN AND SOUTH CENTRAL KENTUCKY

CITY           SKY/WX    TMP DP  RH WIND       PRES   REMARKS
PADUCAH        PTCLDY    77  69  76 S6        30.07R
HENDERSON      PTCLDY    73  68  83 CALM      30.07S
OWENSBORO      CLEAR     76  71  84 CALM      30.08R
HOPKINSVILLE   PTCLDY    79  71  76 S7        30.09R
BOWLING GREEN  CLEAR     78  71  79 CALM      30.09S
GLASGOW        PTCLDY    73  72  95 CALM      30.10S
$$

KYZ024-025-028>034-038-045-046-053-260700-
NORTH CENTRAL KENTUCKY

CITY           SKY/WX    TMP DP  RH WIND       PRES   REMARKS
LOUISVILLE/SDF CLEAR     78  68  71 SE5       30.08R
LOUISVILLE/LOU CLEAR     79  66  64 CALM      30.09S
FORT KNOX      CLEAR     72  69  90 CALM      30.09R
$$

KYZ035>037-039>044-047>052-055>060-089>105-260700-
NORTHEAST KENTUCKY

CITY           SKY/WX    TMP DP  RH WIND       PRES   REMARKS
LEXINGTON      CLEAR     72  65  78 SE5       30.12S
COVINGTON      CLEAR     73  66  78 SE3       30.11S
FRANKFORT      CLEAR     71  67  87 CALM      30.10S
$$

KYZ054-064>069-076>088-106>120-260700-
SOUTHEAST KENTUCKY

CITY           SKY/WX    TMP DP  RH WIND       PRES   REMARKS
JACKSON        CLEAR     73  66  78 CALM      30.14F
LONDON         CLEAR     68  65  90 CALM      30.13F
SOMERSET       CLEAR     68  68 100 CALM      30.13S
MIDDLESBORO    CLEAR     66  65  97 CALM      30.15S
MONTICELLO     NOT AVBL
$$





USA.gov is the U.S. government's official web portal to all federal, state and local government web resources and services.